Regional Weather Roundup
Issued by NWS

Home | Current Version | Previous Version | Graphics & Text | Print | Product List | Glossary On
Versions: 1 2 3 4 5 6 7 8 9 10 11 12 13 14 15 16 17 18 19 20 21 22 23 24 25 26 27 28 29 30 31 32 33 34 35 36 37 38 39 40 41 42 43 44 45 46 47 48 49 50
000
ASUS43 KLSX 241807
RWRMO

WEATHER SUMMARY FOR MISSOURI
NATIONAL WEATHER SERVICE SPRINGFIELD MO
1200 PM CST FRI NOV 24 2017

NOTE: "FAIR" INDICATES FEW OR NO CLOUDS BELOW 12,000 FEET WITH NO
       SIGNIFICANT WEATHER AND/OR OBSTRUCTIONS TO VISIBILITY.
       CURRENT SKY AND/OR WEATHER CONDITIONS ARE NOT AVAILABLE FOR
       CHILLICOTHE AND FARMINGTON.

MOZ001>031-035>038-043-044-053-054-241900-
...NORTHERN AND WESTERN MISSOURI...

CITY           SKY/WX    TMP DP  RH WIND       PRES   REMARKS
KANSAS CTY INT PTSUNNY   67  38  34 SW20G28   29.60F
6HR MIN TEMP:  51; 6HR MAX TEMP:  67;

KANSAS C DTWN  SUNNY     72  38  29 SW17      29.60F
6HR MIN TEMP:  53; 6HR MAX TEMP:  72;

LEE`S SUMMIT   SUNNY     70  37  29 SW20G30   29.62F
6HR MIN TEMP:  48; 6HR MAX TEMP:  70;

ST JOSEPH      SUNNY     68  39  34 SW23G29   29.55F
6HR MIN TEMP:  48; 6HR MAX TEMP:  68; 6HR PCP: TRACE;

CHILLICOTHE      N/A     69  39  33 SW16G24   29.57F
6HR MIN TEMP:  47; 6HR MAX TEMP:  69;

KIRKSVILLE     SUNNY     69  38  32 SW17G32   29.56F
6HR MIN TEMP:  48; 6HR MAX TEMP:  69;


$$
MOZ066>068-077>081-088>096-101>105-241900-
...SOUTHWEST MISSOURI...

CITY           SKY/WX    TMP DP  RH WIND       PRES   REMARKS
SPRINGFIELD    SUNNY     70  36  28 SW16G28   29.78F
6HR MIN TEMP:  41; 6HR MAX TEMP:  70;

JOPLIN         SUNNY     70  36  28 SW22G35   29.76F
6HR MIN TEMP:  49; 6HR MAX TEMP:  70;

BRANSON        MOSUNNY   70  32  24 SW7G17    29.84F

$$
MOZ032>034-039>042-045>050-055>058-069>072-241900-
...CENTRAL MISSOURI...

CITY           SKY/WX    TMP DP  RH WIND       PRES   REMARKS
COLUMBIA       SUNNY     70  36  28 SW20      29.68F
6HR MIN TEMP:  42; 6HR MAX TEMP:  70;

JEFFERSON CITY SUNNY     70  34  26 S15G25    29.70F
6HR MIN TEMP:  37; 6HR MAX TEMP:  70;

ROLLA          SUNNY     69  34  27 SW15G35   29.76F
6HR MIN TEMP:  45; 6HR MAX TEMP:  69;

SEDALIA        LGT RAIN  70  38  31 SW23G37   29.67F
6HR MIN TEMP:  49; 6HR MAX TEMP:  70; 6HR PCP: TRACE;

WHITEMAN AFB   SUNNY     69  36  30 SW20G32   29.61F
WARRENSBURG    SUNNY     68  34  28 S21G31    29.65F
OSAGE BEACH    SUNNY     71  34  25 SW18G25   29.74F

$$
MOZ051-052-059>065-241900-
...EAST CENTRAL MISSOURI...

CITY           SKY/WX    TMP DP  RH WIND       PRES   REMARKS
ST LOUIS INTL  MOSUNNY   66  35  31 S13       29.74F
6HR MIN TEMP:  38; 6HR MAX TEMP:  66;

SPIRIT OF STL  SUNNY     69  35  28 SW14G23   29.72F
6HR MIN TEMP:  31; 6HR MAX TEMP:  69;

ST CHARLES     SUNNY     65  33  30 S13       29.72F
6HR MIN TEMP:  30; 6HR MAX TEMP:  66;


$$
MOZ072>076-082>087-097>100-106>115-241900-
...SOUTH CENTRAL AND SOUTHEAST MISSOURI...

CITY           SKY/WX    TMP DP  RH WIND       PRES   REMARKS
CAPE GIRARDEAU CLOUDY    57  36  45 S9        29.88F
6HR MIN TEMP:  30; 6HR MAX TEMP:  57;

FARMINGTON     SUNNY     64  35  34 S16       29.81F
6HR MIN TEMP:  31; 6HR MAX TEMP:  64;

POPLAR BLUFF   SUNNY     56  35  45 SW9       29.88F
6HR MIN TEMP:  28; 6HR MAX TEMP:  56;

WEST PLAINS    SUNNY     67  32  27 SW12      29.85F
6HR MIN TEMP:  38; 6HR MAX TEMP:  67;


$$



USA.gov is the U.S. government's official web portal to all federal, state and local government web resources and services.